Location: Buckland
(65.9785°N, 161.1281°W)
Time: 23:06:00
(UTC+00:00)

Transit 4A - Pass Details

Date: 30 November 2020
Orbit: 864 x 980 km, 66.8° (Epoch: 20 January)

Event Time Altitude Azimuth Distance (km) Brightness Sun altitude
Rises 21:55:17 0° 258° (WSW) 3,679 11.1 1.9°
Reaches altitude 10° 21:57:50 10° 259° (W) 2,737 10.4 1.9°
Maximum altitude 22:04:18 86° 349° (N) 993 8.2 2.0°
Drops below altitude 10° 22:10:44 10° 80° (E) 2,726 10.3 2.1°
Sets 22:13:17 0° 81° (E) 3,664 11.0 2.1°
